Weather History for MMMZ - November, 2012

Change the Weather History Date:

Friday, November 16, 2012

  Actual Average Record
Temperature  
Mean Temperature 72 °F -  
Max Temperature 84 °F 84 °F 87 °F (2002)
Min Temperature 60 °F 61 °F 55 °F (2010)
Cooling Degree Days 7    
Growing Degree Days 22 (Base 50)    
Moisture  
Dew Point 63 °F    
Average Humidity 79    
Maximum Humidity 94    
Minimum Humidity 51    
Precipitation  
Precipitation 0.00 in - - ()
Sea Level Pressure  
Sea Level Pressure 29.90 in    
Wind  
Wind Speed 6 mph ()    
Max Wind Speed 8 mph    
Max Gust Speed -    
Visibility 9.8 miles    
Events      
Averages and records for this station are not official NWS values.
T = Trace of Precipitation, MM = Missing Value Source: Averaged Metar Reports

Daily Weather History Graph

Daily Weather History Graph

Search for Another Location

Airport or City:

Trip Planner

Search our weather history database for the weather conditions in past years. The results will help you decide how hot, cold, wet, or windy it might be!

Date:

Astronomy

Nov. 16, 2012 Rise Set
Actual Time 6:19 AM MST 5:19 PM MST
Civil Twilight 5:55 AM MST 5:43 PM MST
Nautical Twilight 5:28 AM MST 6:11 PM MST
Astronomical Twilight 5:01 AM MST 6:38 PM MST
Moon 9:11 AM MST (11/16) 8:26 PM MST (11/16)
Length of Visible Light 11h 47m
Length of Day
11h 00m
Waxing Crescent, 12% of the Moon is Illuminated
Nov 16
Waxing Crescent
Nov 20
First Quarter
Nov 28
Full
Dec 6
Last Quarter
Dec 13
New

Hourly Weather History & Observations

Time (MST) Temp. Heat Index Dew Point Humidity Pressure Visibility Wind Dir Wind Speed Gust Speed Precip Events Conditions
12:45 AM 62.6 °F - 59.0 °F 88% 29.92 in 10.0 mi North 6.9 mph - N/A   Clear
1:44 AM 62.6 °F - 59.0 °F 88% 29.91 in 10.0 mi North 6.9 mph - N/A   Clear
2:44 AM 60.8 °F - 57.2 °F 88% 29.90 in 8.0 mi NNE 6.9 mph - N/A   Clear
3:46 AM 60.8 °F - 59.0 °F 94% 29.91 in 8.0 mi North 6.9 mph - N/A   Partly Cloudy
4:53 AM 60.8 °F - 59.0 °F 94% 29.87 in 8.0 mi NNE 8.1 mph - N/A   Partly Cloudy
5:46 AM 60.8 °F - 59.0 °F 94% 29.91 in 8.0 mi North 6.9 mph - N/A   Mostly Cloudy
6:46 AM 60.8 °F - 59.0 °F 94% 29.92 in 7.0 mi NNE 6.9 mph - N/A   Overcast
7:43 AM 68.0 °F - 64.4 °F 88% 29.92 in 8.0 mi North 6.9 mph - N/A   Overcast
8:40 AM 71.6 °F - 66.2 °F 83% 29.94 in 9.0 mi NNE 6.9 mph - N/A   Overcast
9:40 AM 75.2 °F - 66.2 °F 73% 29.95 in 10.0 mi SSE 6.9 mph - N/A   Mostly Cloudy
10:41 AM 80.6 °F 82.3 °F 64.4 °F 58% 29.93 in 10.0 mi SSE 6.9 mph - N/A   Mostly Cloudy
11:42 AM 82.4 °F 83.9 °F 64.4 °F 54% 29.92 in 10.0 mi South 8.1 mph - N/A   Mostly Cloudy
12:41 PM 82.4 °F 83.9 °F 64.4 °F 54% 29.89 in 10.0 mi South 6.9 mph - N/A   Mostly Cloudy
1:41 PM 84.2 °F 85.6 °F 64.4 °F 51% 29.86 in 10.0 mi WSW 8.1 mph - N/A   Mostly Cloudy
2:40 PM 84.2 °F 86.6 °F 66.2 °F 55% 29.86 in 14.0 mi SW 6.9 mph - N/A   Mostly Cloudy
3:40 PM 82.4 °F 84.6 °F 66.2 °F 58% 29.85 in 14.0 mi SW 6.9 mph - N/A   Mostly Cloudy
4:42 PM 78.8 °F - 66.2 °F 65% 29.86 in 14.0 mi SW 6.9 mph - N/A   Mostly Cloudy
5:41 PM 73.4 °F - 66.2 °F 78% 29.86 in 12.0 mi SW 8.1 mph - N/A   Mostly Cloudy
6:41 PM 71.6 °F - 66.2 °F 83% 29.88 in 10.0 mi SW 6.9 mph - N/A   Mostly Cloudy
7:45 PM 71.6 °F - 66.2 °F 83% 29.91 in 10.0 mi WNW 5.8 mph - N/A   Scattered Clouds
8:41 PM 68.0 °F - 64.4 °F 88% 29.93 in 10.0 mi NNE 6.9 mph - N/A   Scattered Clouds
9:51 PM 66.2 °F - 64.4 °F 94% 29.92 in 10.0 mi ESE 6.9 mph - N/A   Scattered Clouds
10:45 PM 66.2 °F - 64.4 °F 94% 29.92 in 8.0 mi Calm Calm - N/A   Partly Cloudy
11:45 PM 64.4 °F - 62.6 °F 94% 29.92 in 8.0 mi Calm Calm - N/A   Clear